Temperature
20 20 20 19 19 19 19 19 18 18 18 18 18 18 18 18 18 18 18 18 18 18 18 18 18 18 18 18 18 18 18 17 17 17 17 17 17 17 17 16 16 16 16
19 19 19 19 19 19 19 18 18 18 18 18 18 18 18 18 18 18 18 18 18 18 18 18 18 18 18 18 18 18 18 18 17 17 17 17 17 17 17 17 16 16 16
19 19 19 19 19 19 19 18 18 18 18 18 18 18 18 18 18 18 18 18 18 19 19 19 18 18 18 18 18 18 18 18 17 17 17 17 17 17 17 17 17 16 16
18 18 18 19 19 19 19 18 18 18 18 18 18 18 18 18 18 18 18 18 18 19 19 19 19 19 18 18 18 18 18 18 18 17 17 17 17 17 17 17 17 16 16
17 17 18 18 18 18 18 18 18 18 18 18 18 18 18 18 18 18 18 18 18 19 19 19 19 19 19 19 18 18 18 18 18 18 18 17 17 17 17 17 17 17 16
17 17 17 17 17 17 18 18 18 18 18 18 18 18 18 18 18 18 18 18 18 19 19 19 19 19 19 19 19 18 18 18 18 18 18 17 17 17 17 17 17 17 17
17 17 17 17 17 17 17 17 17 18 18 17 17 17 18 18 18 18 18 18 18 19 19 19 19 19 19 19 19 19 18 18 18 18 18 17 17 17 17 17 17 17 17
17 17 17 17 17 17 17 17 17 17 17 17 17 17 17 17 18 18 18 18 18 18 18 18 18 18 19 19 19 19 19 18 18 18 18 17 17 17 17 17 17 17 17
16 16 16 16 16 17 17 17 17 17 17 17 17 16 16 16 17 17 17 17 17 17 17 17 17 18 18 18 18 19 19 18 18 18 18 18 17 17 17 17 17 17 17
16 16 16 16 16 16 16 16 16 16 16 16 16 16 16 16 16 16 16 17 16 16 16 16 17 17 17 17 18 18 18 18 18 18 18 17 17 17 17 17 17 17 17
16 16 16 16 16 16 16 16 16 16 16 16 16 16 16 15 15 15 15 15 16 16 16 16 16 16 16 17 17 17 17 17 18 18 18 17 17 17 17 17 17 17 17
15 15 15 15 15 15 15 15 15 15 15 15 15 15 15 15 15 15 14 15 15 15 15 15 15 15 16 16 16 16 17 17 17 17 17 17 17 17 17 17 16 16 16
15 15 15 15 15 15 15 15 15 15 15 15 15 15 15 14 14 14 14 14 14 14 14 14 14 15 15 15 15 15 16 16 16 16 16 16 17 17 16 16 16 16 16
14 14 14 14 14 14 14 14 14 14 14 14 14 14 14 14 14 14 14 14 14 13 13 14 14 14 14 14 14 15 15 15 15 15 16 16 16 16 16 16 16 16 16
14 14 14 14 13 13 13 13 13 13 14 14 14 14 14 14 14 14 14 13 13 13 13 13 13 13 13 14 14 14 14 14 15 15 15 15 15 15 15 15 15 15 15
14 13 13 13 13 13 13 13 13 13 13 13 13 14 14 14 14 13 13 13 13 13 13 13 13 13 13 13 13 14 14 14 14 14 14 15 15 15 15 15 15 14 14
13 13 13 13 13 13 13 13 13 13 13 13 13 13 13 13 13 13 13 13 13 13 13 12 12 12 13 13 13 13 14 14 14 14 14 14 14 14 14 14 14 14 14
13 13 13 12 12 12 12 12 12 13 13 13 13 13 13 13 13 13 13 13 13 13 13 12 12 12 12 13 13 13 13 13 13 13 13 13 13 13 13 13 13 13 13
13 12 12 12 12 12 12 12 12 12 12 12 13 13 13 13 13 13 13 13 13 13 13 13 12 12 12 12 12 12 12 12 13 12 13 13 13 13 12 12 13 13 12
12 12 12 12 11 11 11 12 12 12 12 12 12 12 12 12 13 13 13 13 12 12 12 12 12 12 12 12 12 12 12 12 12 12 12 12 12 12 12 12 12 12 12
12 12 11 11 11 11 11 11 11 11 11 11 12 12 12 12 12 12 12 12 12 12 12 12 12 12 12 12 12 11 11 11 11 11 11 11 11 11 11 11 11 12 12
12 11 11 11 11 11 11 11 11 11 11 11 11 11 11 12 12 12 12 12 12 12 12 12 12 12 11 11 11 11 11 11 11 11 11 11 11 11 11 11 11 11 11
12 11 11 11 11 11 11 11 10 11 11 11 11 11 11 11 11 11 12 12 12 12 12 12 11 11 11 11 11 11 11 10 10 10 10 10 10 10 10 10 10 10 11
11 11 11 11 11 11 10 10 10 10 10 10 10 11 11 11 11 11 11 11 11 11 11 11 11 11 10 10 10 10 10 10 10 10 10 10 10 9 9 9 9 10 10
11 11 11 11 11 10 10 10 10 10 10 10 10 11 11 11 11 11 11 11 11 10 10 10 10 10 10 10 10 10 9 9 9 9 9 9 9 9 9 9 9 9 9
11 11 11 11 11 11 10 10 10 10 10 10 10 10 10 10 10 11 11 11 11 10 10 10 10 10 9 9 9 9 9 9 9 8 8 9 8 9 8 8 8 8 9
Wind_Speed
9 8 7 9 10 11 10 9 9 9 10 11 12 12 12 13 14 14 13 18 20 20 21 21 21 21 21 22 23 25 25 25 25 25 26 26 26 26 26 25 25 25 24
8 8 9 8 8 11 11 9 9 9 9 8 10 10 10 12 12 14 15 16 19 21 21 22 22 21 21 22 22 23 24 24 24 24 25 25 26 26 26 26 26 26 26
12 9 9 10 9 11 11 9 8 7 7 7 9 10 9 10 11 12 14 14 15 17 19 21 22 22 22 23 23 23 23 23 24 24 25 25 25 25 26 25 26 26 26
16 10 11 11 10 9 7 8 7 6 7 7 7 8 8 8 10 11 13 13 13 14 16 19 20 21 22 23 24 24 23 24 24 25 25 25 25 25 25 25 25 24 25
16 11 11 11 9 8 9 9 7 7 7 7 7 7 8 8 9 11 11 12 13 14 15 16 19 20 22 24 25 25 24 24 24 25 25 25 25 25 24 24 24 23 24
11 7 9 10 9 8 9 8 9 9 8 8 9 9 8 9 8 10 12 11 12 15 15 15 15 16 20 23 24 25 25 25 25 25 26 26 26 25 24 24 23 23 23
7 6 6 7 7 8 9 9 8 9 8 7 6 7 8 10 11 11 11 11 12 12 12 13 13 14 14 18 21 23 24 25 25 25 25 26 26 25 24 24 23 23 22
6 5 6 6 6 6 8 8 7 6 6 7 6 5 5 5 7 10 10 10 11 9 10 11 11 12 13 13 14 18 20 21 22 22 23 24 25 24 24 23 23 23 23
7 6 7 6 6 6 7 8 8 8 8 7 8 7 5 7 4 4 7 8 8 7 8 8 9 10 12 11 12 13 15 15 16 18 20 22 23 24 24 24 23 23 23
7 7 7 7 7 6 7 8 8 7 8 8 6 8 8 5 5 4 3 4 6 7 8 7 7 7 7 7 8 9 10 10 10 12 14 17 21 22 23 23 23 23 23
7 7 7 7 7 7 8 9 8 8 8 9 7 5 7 7 8 7 5 3 3 4 5 5 5 4 4 4 3 3 3 3 4 4 7 11 15 18 21 22 23 22 23
6 7 8 8 8 8 9 9 8 9 9 9 8 7 6 5 5 7 8 5 4 2 2 2 2 2 1 1 2 4 5 5 4 3 3 3 6 11 15 18 19 19 20
6 8 8 9 9 9 9 9 8 9 9 9 8 7 6 5 4 4 5 4 3 1 1 2 3 2 2 3 5 7 9 8 7 7 7 6 5 4 5 7 9 9 10
7 9 10 10 10 10 9 8 7 7 6 7 7 6 5 4 4 4 4 3 3 1 1 2 3 4 4 4 7 9 8 10 10 10 10 10 10 9 9 7 6 5 3
7 9 10 10 10 10 9 8 6 6 6 6 6 6 5 4 4 4 3 3 3 3 2 2 3 4 4 5 7 8 8 11 12 11 11 12 12 12 12 11 11 10 8
6 8 9 10 10 9 8 7 6 6 6 5 5 6 5 3 3 3 3 3 3 3 3 3 4 4 5 6 10 10 11 14 14 13 12 12 12 12 11 11 11 10 8
7 8 9 10 10 9 8 6 6 6 7 6 5 6 5 4 3 3 3 3 3 4 6 4 4 4 6 7 8 9 11 10 11 14 14 13 12 11 11 10 10 9 7
6 7 8 9 9 8 6 5 4 4 5 6 6 6 5 4 4 4 4 5 5 5 7 8 4 5 7 6 7 8 7 9 10 14 15 14 13 12 11 10 10 9 8
5 6 7 8 8 7 6 4 2 1 2 4 5 6 5 6 6 5 7 7 7 8 7 8 5 4 6 5 7 7 8 7 8 10 12 13 13 13 12 12 11 10 9
4 5 5 6 6 6 6 6 5 5 7 7 7 6 6 6 7 8 8 10 10 10 9 9 7 5 5 4 5 6 6 7 7 7 8 9 11 12 12 12 11 11 10
3 3 3 4 4 4 5 6 6 7 8 9 9 8 8 10 10 9 10 10 11 10 9 9 8 6 5 4 4 3 4 4 6 7 5 6 6 6 8 9 10 11 11
3 1 1 2 3 4 6 8 7 7 8 9 10 9 10 13 16 16 15 12 11 11 10 8 7 7 4 4 3 4 3 4 4 6 5 5 5 6 6 8 11 12 12
5 3 2 1 2 2 5 7 9 8 8 8 8 8 10 11 13 13 16 16 14 12 10 8 10 6 4 2 4 5 5 5 4 4 3 5 5 5 5 8 13 14 13
6 5 5 4 3 3 5 8 10 8 9 8 7 8 10 9 9 12 13 12 10 9 7 7 7 5 4 3 3 3 3 4 3 4 4 4 5 4 4 5 12 16 16
8 7 7 7 6 5 7 9 10 7 8 8 7 7 9 9 11 15 14 12 11 9 11 12 11 10 10 8 4 4 4 5 5 4 5 3 4 3 3 4 8 15 16
10 10 8 8 9 8 10 10 10 8 8 7 6 7 8 10 11 12 12 12 11 7 8 9 10 10 10 11 10 6 4 4 3 3 5 4 4 4 3 3 4 9 12
Wind_Direction
243 242 245 245 245 245 246 249 250 250 250 253 253 251 251 251 252 252 257 263 266 267 269 270 270 270 264 257 248 240 235 232 227 223 221 221 221 221 222 221 218 216 215
244 245 247 244 243 242 243 243 245 251 254 256 259 257 253 254 251 251 253 260 264 265 267 269 269 267 264 259 252 244 237 233 228 224 222 222 222 222 223 224 221 218 216
243 243 247 247 244 240 241 243 248 253 258 259 261 264 261 256 255 255 255 255 259 263 263 265 266 264 261 257 250 244 238 234 229 224 222 222 222 223 224 225 223 220 217
242 242 245 247 242 236 233 239 243 250 253 253 258 264 264 261 258 257 256 254 253 256 258 258 259 260 260 257 251 245 240 235 230 226 223 221 222 222 223 224 224 221 217
246 238 243 248 242 235 234 236 230 226 237 244 252 259 258 257 257 258 255 254 252 252 254 256 255 255 257 258 254 248 243 237 233 228 224 221 221 220 220 222 222 220 216
262 248 247 250 245 242 239 232 228 223 223 226 238 248 248 249 252 253 257 257 255 253 252 253 254 255 254 254 253 249 245 241 236 230 226 222 220 218 218 219 219 218 214
285 269 265 264 254 246 244 235 229 229 228 217 227 251 255 249 252 253 251 251 253 253 254 253 252 253 254 251 248 248 247 245 241 234 227 222 219 216 215 215 215 214 211
308 299 280 277 268 259 254 245 234 231 229 208 213 230 256 263 243 244 243 245 249 252 254 253 251 248 248 247 245 241 243 245 243 235 227 221 217 214 213 212 212 211 209
310 304 298 289 279 266 262 253 241 236 240 228 214 215 223 237 247 250 240 242 242 243 248 252 253 252 248 243 245 243 241 241 242 237 227 218 215 213 210 210 210 209 209
305 305 301 296 286 274 266 262 250 239 240 244 228 222 228 221 224 258 249 241 242 245 248 253 256 254 252 246 240 236 236 235 238 240 231 221 215 212 209 210 211 211 210
305 304 302 299 291 281 273 267 259 246 239 240 233 221 229 231 226 235 255 253 255 252 252 256 257 259 268 264 250 238 227 205 211 226 226 221 215 211 210 212 215 215 214
305 304 305 300 294 285 277 269 260 251 245 241 236 224 216 215 215 222 237 242 249 262 274 291 283 281 303 331 52 78 84 79 85 97 119 162 201 206 209 212 215 218 220
307 307 307 301 294 286 279 270 260 254 244 239 234 228 220 218 205 206 221 230 234 248 332 17 8 18 46 48 56 68 75 79 82 83 86 88 94 114 162 188 197 205 216
296 300 303 300 294 288 282 272 262 253 242 235 228 217 212 209 202 199 194 192 197 190 78 37 20 29 38 46 60 67 71 75 79 80 81 82 83 85 86 94 109 116 121
297 304 307 303 299 293 285 272 256 246 234 226 215 207 203 200 199 200 193 183 175 167 118 44 41 23 33 54 56 69 69 71 78 80 81 80 81 81 83 84 84 81 78
300 310 312 310 305 299 290 273 257 241 226 218 206 200 196 190 189 191 186 184 171 142 118 61 51 34 46 68 62 70 71 70 70 77 80 81 82 83 84 85 83 80 75
304 313 316 317 313 306 295 275 256 236 221 208 194 187 182 168 165 159 148 136 125 120 117 84 48 41 57 66 62 66 66 67 67 68 73 75 77 78 78 77 75 71 66
305 313 320 323 325 323 315 296 274 232 209 189 173 163 157 143 129 127 124 113 108 108 122 117 72 50 56 56 62 62 59 64 64 61 64 66 68 71 71 69 66 60 50
308 321 330 334 339 343 350 358 15 85 126 136 140 138 131 127 117 112 111 110 106 102 100 111 94 63 62 51 61 63 59 52 54 54 57 58 60 65 65 62 58 50 40
299 320 335 345 350 1 14 25 51 77 87 88 92 99 107 113 119 118 114 113 112 107 102 102 95 75 62 46 63 68 65 51 45 37 42 46 51 57 57 55 49 40 30
266 301 337 360 9 24 37 49 59 79 87 86 79 78 89 103 107 112 120 120 118 113 109 104 98 86 68 60 61 56 77 66 53 30 30 33 35 43 41 38 34 24 17
230 259 334 24 45 55 52 63 74 80 84 89 88 82 87 92 94 91 94 97 110 119 118 109 102 98 89 79 72 69 70 63 46 11 19 26 30 40 34 35 23 17 11
203 199 191 137 106 91 86 84 80 86 82 80 88 95 98 97 96 98 87 80 78 86 104 116 112 112 110 111 104 88 78 76 64 359 7 27 20 34 27 29 25 22 16
199 194 188 175 158 154 130 111 96 85 83 76 80 97 104 100 104 106 99 88 79 71 83 96 109 110 108 109 103 104 103 92 72 37 21 30 8 9 359 17 17 15 12
199 194 187 178 170 165 151 133 118 104 93 79 74 87 107 109 118 116 109 104 94 83 78 84 86 86 83 78 94 102 91 86 64 30 18 24 5 352 349 3 8 10 8
200 190 187 183 176 172 167 153 132 120 108 99 84 77 93 112 120 121 122 121 115 110 108 94 77 65 66 61 59 72 97 97 83 43 11 14 11 8 12 355 352 4 7
Height
1530 1530 1529 1530 1530 1530 1530 1530 1531 1531 1532 1532 1532 1532 1531 1531 1531 1531 1531 1531 1531 1532 1532 1532 1532 1532 1533 1533 1534 1534 1534 1535 1536 1536 1538 1539 1540 1542 1545 1547 1549 1551 1553
1526 1526 1525 1525 1525 1525 1526 1526 1526 1527 1527 1528 1528 1527 1527 1527 1527 1527 1527 1527 1528 1527 1528 1528 1528 1528 1528 1528 1529 1529 1530 1530 1531 1532 1533 1534 1535 1537 1539 1542 1544 1546 1549
1521 1521 1520 1519 1519 1520 1520 1520 1521 1521 1521 1522 1522 1522 1522 1522 1522 1522 1522 1522 1522 1522 1522 1522 1522 1523 1523 1523 1523 1524 1525 1525 1526 1526 1528 1529 1530 1532 1534 1537 1539 1542 1544
1515 1514 1514 1513 1513 1513 1513 1514 1514 1514 1515 1515 1515 1516 1516 1516 1516 1516 1516 1516 1516 1516 1516 1516 1516 1517 1517 1517 1518 1518 1519 1519 1520 1521 1522 1523 1525 1527 1529 1531 1534 1536 1539
1509 1508 1507 1506 1506 1507 1506 1507 1507 1506 1507 1507 1507 1508 1508 1509 1509 1510 1510 1510 1509 1509 1509 1509 1509 1510 1510 1510 1511 1511 1512 1513 1514 1515 1517 1518 1519 1521 1523 1525 1528 1531 1533
1503 1502 1501 1500 1499 1499 1498 1499 1499 1499 1499 1499 1500 1500 1501 1501 1501 1502 1502 1502 1502 1502 1501 1501 1502 1502 1502 1503 1504 1505 1506 1507 1508 1509 1511 1512 1514 1515 1517 1520 1522 1525 1528
1498 1496 1495 1493 1492 1491 1491 1491 1491 1491 1491 1492 1493 1493 1493 1494 1494 1494 1494 1495 1494 1494 1494 1493 1493 1493 1494 1495 1496 1497 1499 1500 1501 1503 1504 1506 1508 1509 1512 1514 1517 1519 1522
1492 1490 1488 1487 1485 1484 1484 1483 1483 1483 1483 1484 1485 1485 1485 1486 1485 1486 1486 1486 1486 1486 1485 1485 1485 1485 1485 1486 1487 1489 1491 1493 1494 1496 1497 1499 1501 1503 1506 1508 1511 1514 1517
1487 1484 1482 1480 1479 1477 1476 1476 1476 1476 1476 1476 1477 1479 1479 1477 1477 1477 1478 1478 1478 1478 1477 1477 1477 1477 1477 1478 1479 1481 1483 1486 1488 1489 1491 1492 1495 1497 1500 1502 1505 1508 1512
1481 1479 1476 1474 1472 1471 1470 1469 1469 1469 1469 1468 1469 1470 1471 1471 1472 1470 1470 1470 1470 1470 1470 1470 1470 1470 1470 1471 1472 1474 1476 1478 1480 1483 1484 1486 1488 1491 1494 1497 1500 1503 1506
1476 1473 1470 1467 1465 1464 1463 1462 1461 1461 1461 1461 1462 1462 1463 1463 1464 1464 1463 1464 1464 1464 1464 1464 1464 1464 1465 1465 1466 1467 1469 1471 1473 1476 1478 1480 1482 1485 1488 1491 1494 1497 1500
1471 1468 1464 1461 1459 1457 1455 1454 1454 1453 1454 1454 1454 1455 1456 1456 1456 1457 1458 1458 1459 1459 1459 1459 1459 1459 1460 1460 1461 1462 1463 1465 1467 1470 1472 1474 1476 1479 1482 1485 1489 1492 1495
1466 1462 1459 1456 1453 1450 1448 1447 1446 1446 1446 1447 1447 1448 1449 1450 1451 1452 1453 1453 1454 1455 1455 1455 1455 1456 1456 1457 1458 1459 1460 1462 1463 1465 1468 1470 1471 1474 1476 1480 1483 1486 1489
1462 1458 1454 1451 1447 1444 1442 1441 1440 1440 1440 1440 1441 1442 1443 1444 1446 1447 1448 1450 1450 1451 1452 1452 1453 1453 1454 1455 1457 1458 1459 1460 1462 1463 1465 1467 1468 1470 1472 1475 1478 1480 1483
1458 1454 1450 1446 1442 1439 1437 1435 1434 1434 1434 1435 1436 1437 1439 1440 1442 1443 1444 1446 1448 1448 1450 1451 1452 1453 1454 1455 1457 1458 1459 1460 1461 1463 1464 1465 1466 1467 1469 1471 1473 1476 1478
1454 1450 1446 1442 1438 1435 1432 1430 1429 1429 1430 1431 1432 1434 1435 1437 1439 1440 1441 1443 1444 1446 1448 1450 1451 1453 1455 1456 1457 1458 1459 1460 1461 1462 1463 1464 1465 1466 1468 1469 1471 1473 1475
1451 1446 1442 1438 1434 1430 1428 1426 1425 1425 1426 1427 1429 1431 1433 1434 1436 1438 1439 1441 1443 1445 1447 1450 1452 1454 1456 1457 1458 1459 1460 1461 1461 1462 1463 1463 1464 1465 1467 1468 1469 1470 1472
1448 1444 1439 1435 1431 1427 1424 1422 1421 1421 1422 1423 1426 1428 1430 1432 1434 1436 1438 1440 1442 1445 1447 1450 1453 1456 1458 1459 1460 1460 1461 1461 1462 1462 1463 1463 1464 1465 1465 1466 1467 1468 1469
1445 1441 1437 1433 1429 1426 1423 1420 1419 1418 1419 1421 1423 1426 1428 1431 1433 1436 1438 1440 1443 1446 1449 1451 1454 1457 1459 1461 1461 1462 1463 1463 1463 1464 1464 1464 1464 1464 1465 1465 1466 1466 1466
1442 1439 1435 1432 1429 1426 1423 1420 1419 1418 1419 1420 1423 1425 1428 1430 1433 1436 1438 1441 1444 1447 1451 1453 1456 1458 1460 1462 1463 1463 1464 1465 1465 1465 1465 1465 1465 1465 1465 1465 1464 1464 1464
1440 1437 1435 1431 1429 1426 1424 1422 1420 1420 1420 1422 1424 1426 1429 1431 1434 1437 1440 1443 1446 1449 1452 1455 1457 1459 1462 1463 1464 1465 1465 1466 1466 1466 1466 1466 1466 1465 1465 1464 1464 1463 1462
1437 1436 1434 1431 1429 1427 1425 1424 1423 1423 1423 1425 1426 1429 1431 1434 1437 1440 1443 1447 1450 1452 1454 1456 1459 1461 1463 1464 1465 1466 1466 1467 1467 1468 1467 1467 1466 1465 1465 1464 1463 1462 1461
1433 1433 1432 1431 1429 1428 1427 1427 1426 1426 1427 1428 1430 1432 1435 1438 1441 1443 1447 1450 1453 1456 1458 1459 1460 1462 1464 1465 1466 1466 1467 1467 1467 1468 1468 1467 1467 1466 1465 1464 1463 1461 1459
1429 1430 1430 1430 1430 1429 1429 1429 1430 1430 1431 1433 1435 1437 1439 1442 1445 1447 1450 1452 1455 1458 1460 1462 1463 1464 1465 1466 1467 1468 1468 1468 1468 1468 1468 1468 1467 1467 1466 1464 1463 1461 1459
1424 1426 1427 1428 1429 1429 1430 1431 1432 1434 1435 1437 1439 1441 1443 1446 1449 1451 1453 1455 1457 1459 1462 1464 1465 1466 1467 1467 1468 1468 1469 1469 1469 1469 1469 1468 1468 1467 1466 1465 1463 1461 1458
1418 1421 1423 1425 1427 1429 1430 1432 1434 1435 1437 1439 1442 1444 1446 1448 1451 1453 1455 1456 1458 1461 1463 1465 1466 1467 1468 1468 1469 1469 1470 1470 1470 1470 1470 1469 1468 1467 1466 1466 1463 1461 1458